Wind_Speed
25 24 24 25 25 25 25 25 25 24 23 22 21 22 22 21 21 19 18 17 15 14 14 14 13 12 11 11 10 10 10 10 10 9 9 8 8 8 7 7 7 7 7 7 7 7 7 7 7 7 8 8 7 6 6 7 7 8 8 8 9 10 11 12 12 13 14 15 15 16 17 17 18 18 18 18 19 20 20 21 22 23 24 25 26
24 23 23 24 25 26 26 26 26 25 23 23 23 23 22 22 21 19 18 17 16 15 15 14 13 12 12 11 11 10 10 10 10 10 10 9 8 8 8 7 7 7 7 8 8 9 8 8 8 7 7 7 7 7 6 6 6 7 8 8 9 10 11 12 13 14 15 16 16 17 17 18 18 18 19 19 20 21 22 22 23 24 25 26 26
25 24 23 23 24 26 27 26 26 26 25 24 24 23 22 22 20 19 18 18 16 16 15 14 14 13 12 12 11 11 11 11 11 10 10 9 9 8 8 8 7 7 8 8 9 10 9 9 8 7 7 7 6 6 6 7 7 7 7 8 8 9 10 11 12 13 14 15 16 17 17 18 19 19 20 20 21 21 23 23 24 24 25 26 27
25 25 23 23 24 26 26 27 27 27 26 26 24 23 22 21 20 19 19 17 16 16 15 15 14 13 13 12 12 12 11 11 11 10 10 10 9 9 10 9 9 9 8 9 9 10 10 9 7 6 6 7 7 6 5 6 7 7 8 8 9 9 9 10 11 11 12 14 15 16 17 19 21 21 21 22 22 22 23 25 24 24 25 26 27
25 25 24 24 25 25 26 27 28 28 27 26 25 24 22 21 20 20 18 17 17 16 16 15 14 14 13 13 13 12 11 11 11 11 10 10 10 11 11 11 10 10 9 9 8 8 9 8 5 4 4 6 7 6 6 6 6 7 8 9 10 10 10 11 12 12 12 13 15 16 17 18 20 21 22 22 23 24 25 26 25 24 25 26 27
25 25 25 25 25 25 26 27 28 28 27 26 25 24 23 22 21 20 18 18 18 17 16 15 14 14 14 13 13 12 12 12 12 12 11 10 10 11 11 11 11 10 8 8 7 7 7 5 4 3 3 4 4 4 5 6 6 7 8 9 10 11 12 13 13 13 13 14 15 16 16 17 18 20 22 23 23 24 27 28 28 27 27 27 27
25 25 25 25 26 27 27 27 27 27 27 26 26 25 23 22 21 20 19 19 18 17 16 15 15 14 13 13 13 13 13 13 12 11 10 10 10 11 11 10 9 8 8 7 6 6 5 4 3 2 2 0 1 1 2 4 5 6 8 9 10 12 13 14 15 16 15 15 16 17 18 19 18 19 21 23 23 24 28 30 30 31 32 30 29
24 24 25 26 27 28 28 28 28 27 27 26 26 25 23 23 22 21 20 19 19 18 17 16 15 14 13 13 13 13 13 12 11 11 11 10 10 11 11 10 9 9 8 8 7 6 5 5 4 3 2 2 1 1 2 3 4 5 8 9 11 13 14 16 17 18 19 18 18 18 20 21 21 22 23 24 25 26 30 32 31 32 35 34 33
24 24 25 26 27 27 28 28 28 28 27 26 25 24 24 23 23 21 20 20 19 19 18 17 15 15 14 14 13 13 12 11 11 11 11 11 11 12 12 12 11 11 10 9 8 7 6 5 3 2 1 0 1 2 4 5 6 7 9 10 11 14 16 18 19 21 21 21 21 21 22 22 23 25 27 27 28 29 31 33 33 33 35 36 35
25 26 26 27 28 28 28 28 28 28 27 26 26 25 25 24 23 22 21 21 20 20 18 17 16 16 16 15 13 12 12 11 12 12 12 13 13 13 13 13 13 12 11 10 9 8 6 4 2 1 2 3 5 6 7 8 9 10 12 13 14 16 18 19 21 22 23 23 23 24 25 23 23 26 28 29 31 32 33 34 34 34 36 36 35
26 27 28 28 28 29 29 28 28 28 28 28 27 27 26 25 24 23 22 21 21 20 18 17 17 17 16 15 14 13 13 13 13 13 14 14 14 14 14 13 13 13 12 11 10 8 6 4 3 3 4 6 7 9 10 12 13 14 15 16 18 19 21 22 23 24 25 24 24 25 26 25 25 27 29 30 33 34 35 36 36 35 36 36 35
28 27 28 28 28 28 29 28 28 28 29 29 28 28 27 26 24 23 22 22 22 20 19 18 18 18 16 15 14 14 14 15 15 15 15 15 15 15 15 14 13 13 12 12 10 9 7 5 4 4 5 8 10 11 13 15 16 17 18 19 20 22 23 24 25 26 27 27 26 26 27 27 28 29 31 33 35 36 37 38 38 37 36 36 34
28 27 27 28 28 28 27 27 26 27 27 27 27 27 26 25 24 23 23 23 22 20 20 20 19 18 17 16 15 16 17 17 17 17 17 17 16 16 16 15 14 13 13 12 11 9 8 7 6 6 8 10 12 14 16 18 20 21 21 21 22 23 25 26 27 29 30 30 30 29 29 31 31 31 33 36 37 37 38 40 41 40 38 37 36
27 27 27 27 27 26 26 25 24 25 25 25 26 25 24 24 23 23 23 23 22 21 21 21 20 19 18 17 18 19 19 20 20 20 20 19 18 16 16 16 15 14 13 13 12 11 10 9 7 7 10 12 14 16 19 21 23 24 24 24 24 25 26 27 28 31 33 34 34 32 32 35 36 36 38 41 42 41 41 43 44 44 42 40 40
26 26 26 25 24 24 24 24 24 24 25 25 25 24 24 24 24 24 24 23 22 23 23 23 22 21 20 20 20 20 20 21 22 22 21 20 19 17 16 16 15 14 14 14 13 12 12 11 9 9 12 14 16 19 21 23 25 26 27 27 27 28 29 30 31 33 35 37 38 37 36 38 41 41 43 46 47 46 46 47 47 46 44 43 43
25 25 24 22 22 21 21 21 22 22 23 24 24 24 25 25 25 25 25 24 23 23 24 24 24 23 22 21 21 20 21 23 23 22 21 21 21 19 17 17 17 16 15 15 15 15 14 13 13 13 14 16 19 21 23 26 27 28 28 29 29 30 31 32 34 36 37 39 40 40 40 42 44 46 47 49 50 50 50 49 48 47 46 46 47
24 24 23 23 22 21 21 19 18 18 19 19 20 22 23 24 25 25 25 24 24 24 25 26 26 25 24 23 22 21 22 24 24 23 23 23 23 21 20 19 18 17 17 18 18 17 17 16 16 17 17 19 21 24 26 28 30 30 30 30 30 31 32 35 37 37 38 40 41 42 44 44 46 48 49 52 53 54 54 52 49 49 51 52 54
25 24 24 24 23 22 21 19 18 17 16 15 16 18 20 22 24 24 24 24 24 25 27 28 27 27 26 24 23 23 24 25 26 25 25 25 25 23 23 22 19 18 18 19 19 19 18 18 19 19 20 22 24 26 29 31 31 32 33 32 31 31 33 36 37 38 40 42 42 44 46 46 47 49 49 52 54 55 55 53 51 53 56 57 58
25 24 24 24 23 22 21 20 19 18 16 15 15 16 18 20 23 24 23 24 25 27 28 29 28 27 26 25 24 24 26 27 27 27 27 28 26 25 24 23 20 18 19 20 21 20 19 19 20 22 23 25 27 29 31 33 34 35 36 35 32 30 33 37 40 42 44 44 44 45 46 45 47 50 51 52 54 54 55 55 53 55 58 58 59
27 25 25 24 23 23 23 22 21 19 18 16 16 16 16 18 21 23 23 23 25 27 28 28 28 27 26 26 25 25 26 28 28 28 29 28 27 26 24 22 20 20 21 22 21 21 20 21 23 25 26 28 29 32 34 35 36 38 40 39 34 32 36 41 43 44 44 43 43 44 44 45 46 48 48 49 50 50 52 53 53 55 57 58 60
29 27 26 25 24 24 24 24 23 22 21 19 18 17 17 16 18 22 23 23 24 26 27 27 27 27 27 26 26 26 26 27 28 29 29 27 27 26 24 22 21 22 23 22 21 21 22 23 26 28 29 30 32 34 35 37 39 40 44 45 39 35 37 41 41 41 42 41 42 43 43 44 45 43 43 43 43 45 48 48 50 53 55 57 59
32 30 29 28 27 27 26 26 26 26 25 23 21 20 19 18 17 19 23 24 23 24 26 27 26 27 27 27 26 26 26 26 27 28 28 27 27 26 25 24 24 25 24 22 23 24 25 27 29 31 32 33 34 35 36 38 40 42 46 49 44 37 37 40 41 41 43 44 45 45 44 44 45 44 43 42 43 45 47 47 47 48 50 53 56
34 33 32 31 31 31 31 30 31 30 29 28 25 23 22 21 19 18 20 24 25 25 26 26 26 26 26 26 25 25 25 25 26 27 27 27 27 27 26 25 25 26 25 24 25 27 28 30 32 33 35 35 35 36 37 39 42 43 47 51 48 42 41 43 43 45 46 47 48 48 46 47 48 48 48 47 48 50 50 47 46 45 47 49 51
35 35 35 35 35 35 35 34 34 33 32 31 29 28 26 25 22 20 19 20 22 23 24 24 24 24 24 24 23 23 24 24 24 25 26 27 27 27 26 27 27 27 26 26 28 30 31 33 34 35 36 37 37 38 39 40 43 45 47 50 50 47 45 46 48 50 51 51 50 50 49 49 51 51 51 51 52 53 51 48 46 46 47 48 47
37 37 37 37 37 37 38 37 36 35 35 34 33 32 31 29 27 24 22 20 20 20 21 21 22 22 22 23 23 24 24 24 24 24 25 27 27 28 28 29 29 29 29 29 31 33 34 35 37 37 38 38 39 40 41 43 45 47 49 50 51 50 50 51 52 54 55 54 52 51 51 51 52 53 53 52 52 52 49 46 45 46 48 48 48
40 40 39 39 39 39 39 39 39 38 38 37 36 36 35 33 31 29 27 25 23 22 22 22 22 23 23 24 25 26 26 26 26 27 28 29 30 30 31 32 32 32 32 32 34 35 36 37 38 38 39 41 42 43 44 46 47 49 50 51 52 53 54 55 56 57 57 57 57 56 55 55 55 56 55 54 52 49 46 43 44 45 46 47 48
44 43 43 42 42 42 42 42 42 42 42 41 40 40 38 37 35 33 31 29 27 25 24 24 23 24 24 25 27 27 28 28 28 29 30 31 32 32 33 33 33 33 34 34 36 37 38 39 40 41 42 43 45 46 47 49 50 50 51 53 54 55 56 57 58 59 59 60 61 60 60 60 60 59 57 55 51 46 42 42 44 45 45 47 48
44 44 44 44 44 44 44 44 44 44 44 43 43 42 41 40 38 37 35 33 30 29 27 26 26 26 27 28 29 29 29 29 29 31 32 33 33 34 34 34 35 36 37 38 39 40 40 42 43 44 45 46 47 49 50 51 51 52 53 54 55 56 57 58 59 60 61 62 63 63 63 63 63 62 59 55 49 43 40 41 44 46 48 49 49
43 43 43 43 43 43 43 43 42 42 43 43 43 42 42 41 41 40 38 36 34 33 32 31 31 31 31 31 32 32 31 31 31 32 33 34 34 35 36 37 38 39 40 41 42 42 43 44 45 46 47 48 50 51 52 53 53 53 54 56 57 58 59 60 60 61 63 64 65 65 64 64 63 61 58 54 48 42 40 42 45 48 50 51 50
39 39 39 39 39 39 38 38 37 37 38 39 41 41 41 40 40 40 39 39 38 38 37 36 35 35 34 35 35 35 34 34 35 35 35 36 37 37 38 39 40 41 42 43 44 44 45 46 47 48 49 51 52 53 54 54 54 55 56 57 58 59 60 61 62 63 64 65 66 66 65 64 62 59 57 55 50 44 41 43 46 48 50 51 51
35 35 36 36 35 35 34 33 32 31 31 32 34 36 37 38 38 38 38 39 39 39 38 38 37 37 36 36 36 37 37 37 38 38 38 39 40 40 41 41 42 43 44 45 46 46 47 48 49 50 52 53 53 54 55 55 56 57 57 58 59 60 61 62 63 64 65 65 66 65 64 63 61 59 57 56 53 48 45 46 49 51 51 52 52
33 33 34 34 34 34 32 31 30 29 28 28 28 30 31 33 33 34 35 37 38 38 38 38 37 37 37 37 37 38 39 39 40 40 40 41 41 42 42 43 44 45 46 47 47 48 49 51 52 52 53 54 54 55 56 57 58 58 59 60 60 61 62 63 64 64 65 65 65 64 62 61 60 59 58 56 55 52 50 50 52 53 54 54 53
32 32 33 34 34 33 33 32 31 30 29 29 29 29 29 30 30 31 33 34 36 36 36 36 36 36 37 37 38 38 39 40 40 40 40 41 42 43 44 44 45 46 47 48 49 50 51 52 52 53 54 54 55 56 57 58 59 60 61 62 63 63 64 64 64 64 64 64 64 63 61 60 59 59 59 57 56 55 54 54 55 55 56 56 55
32 33 33 34 34 34 34 33 33 32 31 31 30 30 30 30 30 31 32 33 34 35 35 35 35 36 36 37 37 38 39 40 40 41 41 42 43 44 45 45 46 47 47 48 50 50 51 52 53 54 54 56 57 58 59 59 61 62 63 64 65 65 66 65 65 65 64 64 63 61 60 60 59 58 57 57 55 54 54 56 56 56 56 57 56
32 33 34 34 35 35 34 34 34 33 33 32 32 32 32 32 31 32 32 33 34 35 35 35 35 36 37 38 38 39 40 41 42 42 43 44 44 45 45 46 47 47 48 49 50 51 52 53 54 55 56 57 58 59 60 61 62 63 65 66 66 67 67 66 66 65 64 63 62 61 60 60 60 58 57 56 55 54 53 54 55 55 54 55 55
34 34 34 35 35 36 36 35 35 34 34 34 34 34 34 33 33 34 34 35 36 36 36 37 37 38 39 39 40 41 42 42 43 43 44 45 46 46 47 47 48 48 49 50 51 52 53 54 55 56 57 58 59 60 61 62 64 65 66 67 67 67 68 67 66 66 65 63 62 61 60 61 61 60 59 57 56 55 54 54 55 55 54 54 55
38 37 36 36 36 37 37 37 37 37 36 36 36 36 37 36 36 37 37 37 37 37 37 38 39 40 40 41 42 43 44 44 45 46 46 47 48 48 48 49 49 50 51 52 53 53 54 55 56 57 58 59 60 62 63 64 65 67 67 68 68 68 68 68 67 66 64 63 62 61 61 61 61 60 60 59 58 57 56 55 55 55 54 54 53
41 40 40 39 38 39 38 38 39 39 38 38 39 39 39 39 39 39 39 39 38 38 39 40 41 42 43 44 44 45 46 47 48 48 49 49 49 49 50 50 51 52 52 53 54 54 55 56 57 58 60 61 62 63 64 65 66 68 68 69 70 69 69 68 67 66 64 63 62 62 62 62 61 60 58 57 56 56 56 56 55 54 53 53 51
43 43 42 42 41 41 40 40 40 39 39 39 40 40 39 39 40 40 40 40 40 40 41 42 44 45 45 46 47 47 48 49 49 49 50 50 50 50 51 51 52 53 53 54 55 56 57 58 59 60 61 63 63 64 65 66 68 69 70 70 70 70 70 69 67 65 64 62 62 63 63 62 62 60 57 55 55 54 55 54 52 51 51 50 49
44 44 44 44 44 44 43 43 42 41 40 41 41 41 40 40 41 41 41 42 43 43 44 45 46 47 47 48 48 49 49 49 49 50 50 50 50 51 52 52 53 54 55 56 57 59 60 61 62 62 63 64 65 66 67 68 69 70 71 71 71 71 71 69 67 65 64 62 62 63 63 63 62 60 57 54 53 53 53 52 50 49 48 46 45
46 46 46 46 45 45 45 45 45 44 43 43 43 43 43 43 43 43 44 44 45 45 46 47 47 48 48 48 49 49 49 49 50 50 51 51 52 53 54 55 56 57 58 59 60 61 62 63 63 64 65 66 66 67 68 69 70 71 71 72 73 72 72 70 68 66 64 62 62 63 64 63 62 60 57 55 54 53 53 52 49 47 45 44 44
48 48 49 48 48 47 47 47 47 47 47 46 46 46 46 46 46 46 47 47 48 48 48 49 49 49 50 50 50 50 50 51 52 52 53 54 55 56 57 58 59 60 61 62 63 64 64 64 65 65 66 67 68 69 70 71 71 72 72 73 73 73 73 71 69 67 65 63 62 63 63 63 61 60 58 56 55 54 54 53 50 47 46 45 45
50 50 50 51 50 50 49 49 49 49 49 49 49 49 49 49 49 49 50 50 51 51 51 51 52 52 52 52 52 53 54 54 55 56 57 57 58 59 60 61 62 63 64 64 65 65 66 66 67 67 68 69 70 70 71 72 72 73 73 74 74 74 73 72 70 68 65 63 63 63 63 62 61 59 58 56 55 55 54 52 49 47 47 46 45
51 51 51 52 52 52 52 51 51 51 51 51 51 51 52 52 52 52 52 53 53 53 53 54 54 54 55 55 56 57 58 58 59 59 60 61 62 62 63 64 64 65 65 66 66 67 67 68 69 70 70 71 71 71 72 73 73 73 74 74 74 74 73 72 70 68 66 64 63 63 63 62 60 59 58 56 54 53 52 50 48 46 44 43 43
51 51 51 51 51 52 52 52 52 51 52 52 52 52 53 53 53 54 54 55 55 55 56 56 57 57 58 58 59 60 61 61 62 62 63 64 64 65 65 66 66 67 67 67 68 68 69 70 71 71 72 72 72 72 73 73 73 73 73 73 73 73 73 72 70 68 66 65 64 63 62 62 60 59 58 56 53 52 50 48 47 45 42 40 39
51 51 51 51 51 51 51 51 52 52 52 53 53 53 54 54 54 55 55 56 57 57 58 59 59 60 60 61 61 62 63 63 64 64 65 66 66 67 67 68 68 68 69 69 69 70 71 71 72 72 73 73 73 73 73 73 73 73 72 72 72 72 71 71 69 68 67 65 64 64 63 62 61 60 59 57 55 53 51 48 47 45 43 40 37
52 52 51 51 51 51 51 52 52 53 53 54 55 55 56 56 57 57 58 58 59 59 60 60 61 62 62 63 63 64 65 65 66 66 67 67 68 68 68 69 70 70 70 70 71 71 72 73 73 73 73 73 73 74 73 73 72 72 72 71 71 71 71 70 69 68 67 66 65 64 63 62 61 60 59 58 56 55 53 50 47 45 43 40 36
52 53 53 53 53 53 54 54 55 56 56 57 57 58 58 59 59 60 60 61 61 62 62 63 63 64 64 65 65 66 66 67 67 68 68 69 69 70 70 70 71 71 71 72 72 73 73 73 73 73 73 73 73 73 73 73 72 71 71 71 71 71 71 70 68 67 67 67 66 65 63 62 60 59 58 57 56 56 54 50 46 44 42 39 34
58 58 57 57 57 58 58 58 59 59 59 59 59 59 60 60 61 61 62 62 63 63 64 64 65 65 65 66 67 67 68 68 69 69 70 70 71 71 72 72 72 73 73 73 73 73 73 73 73 73 73 73 73 73 73 72 72 72 73 73 73 72 70 69 68 68 68 66 65 63 61 59 58 57 56 55 55 54 52 49 44 42 40 37 34
61 61 61 61 62 62 62 62 62 62 62 61 61 60 60 61 61 62 62 63 64 64 65 65 66 66 67 67 68 69 69 69 70 70 71 71 72 72 73 73 73 73 73 73 73 73 73 73 73 73 73 73 73 74 74 74 75 75 74 73 72 71 69 69 68 68 67 65 63 61 59 56 54 53 53 53 52 51 49 46 43 40 38 37 34
64 64 63 62 61 61 61 62 62 62 62 61 60 60 60 61 62 63 64 64 65 65 66 66 67 67 68 68 69 69 70 70 70 71 71 72 72 73 73 73 73 73 73 73 73 73 73 73 74 74 74 75 75 76 76 76 75 74 72 71 70 70 69 68 66 64 62 60 58 56 53 51 51 51 51 52 51 50 48 45 42 38 35 34 34
Wind_Direction
199 198 199 202 203 203 203 202 201 200 198 196 194 196 198 197 196 196 199 203 206 211 217 222 225 229 233 237 242 248 255 261 266 269 272 276 279 281 284 286 288 293 298 301 305 308 310 312 318 327 334 336 334 328 320 314 312 315 318 324 331 337 342 342 342 344 346 348 348 347 347 345 345 345 345 344 343 342 341 341 341 341 341 341 342
201 201 202 205 206 205 205 203 201 199 195 195 197 199 199 199 200 201 204 209 212 216 219 221 222 224 228 233 238 244 251 258 263 268 272 274 277 277 276 275 275 280 284 289 295 299 300 303 308 317 325 326 326 324 319 309 307 311 316 323 326 332 336 337 337 341 343 343 343 343 342 340 339 338 338 337 338 337 336 336 337 337 337 337 338
203 204 203 204 206 206 206 204 200 196 193 195 198 198 198 200 201 203 208 212 214 217 220 221 221 224 228 234 238 241 247 253 260 266 271 272 270 268 266 263 263 266 271 278 285 289 292 296 302 310 316 315 315 318 320 316 313 314 318 322 324 329 335 334 335 340 342 340 339 340 339 337 337 337 335 335 335 335 333 333 334 335 335 335 335
203 204 202 203 204 205 206 204 199 195 193 195 196 196 197 199 201 205 210 213 215 218 221 222 223 226 230 234 239 241 243 248 255 261 262 261 260 258 257 256 256 256 262 269 275 281 286 290 295 303 306 307 310 319 323 319 318 321 322 321 323 330 335 334 336 340 342 340 338 340 340 337 336 337 336 335 335 334 331 330 333 335 333 333 334
203 201 202 203 201 202 203 201 197 194 193 195 195 195 197 198 201 207 210 212 215 218 220 222 224 227 230 234 238 242 244 246 248 249 249 249 248 248 250 252 253 254 257 260 262 267 273 278 286 287 286 292 303 316 322 321 325 328 324 322 327 334 337 339 341 343 345 341 338 340 340 336 336 335 333 333 334 332 328 327 331 333 331 331 333
204 202 202 201 198 198 199 198 196 194 195 195 194 195 197 199 202 206 208 211 216 219 220 222 225 228 231 233 234 238 242 244 245 245 243 241 239 241 243 245 247 250 249 245 242 243 249 256 259 255 259 276 296 310 315 317 324 325 321 324 332 339 342 342 343 345 344 341 338 337 335 335 336 332 328 328 330 328 323 321 326 329 327 329 332
205 203 201 197 193 192 194 195 195 195 196 196 195 196 199 200 202 204 207 212 216 218 219 222 226 228 230 232 232 232 234 237 241 241 237 233 229 228 229 229 229 228 223 216 213 211 209 203 197 205 212 229 341 339 322 321 327 324 321 327 336 342 342 340 340 339 337 337 335 332 329 330 331 326 321 322 324 321 317 318 323 324 324 328 331
203 202 198 193 190 190 192 194 195 196 198 197 197 198 200 201 203 205 208 212 214 216 219 222 226 229 228 229 231 233 233 232 230 227 223 218 211 206 202 199 196 195 191 187 185 182 178 171 163 153 138 116 89 8 324 321 325 319 317 325 334 337 335 334 334 332 329 330 330 325 324 326 325 320 317 317 318 316 314 317 323 323 322 326 328
197 196 193 189 190 192 194 196 197 197 198 198 198 199 200 202 204 206 208 211 214 216 219 222 226 229 229 228 230 233 233 227 218 213 208 200 192 186 184 184 184 184 181 179 182 182 180 177 166 159 148 338 304 300 302 306 311 309 310 320 328 330 330 330 329 327 325 326 325 321 320 322 319 315 314 314 315 313 313 318 323 322 321 324 326
194 192 191 190 192 195 197 198 198 198 197 198 198 198 200 202 205 207 208 211 215 218 221 222 225 228 231 231 233 231 226 218 210 204 196 189 185 183 183 184 184 183 183 186 192 195 194 193 200 239 290 300 300 305 309 310 310 308 310 320 328 330 329 329 326 323 322 323 322 319 320 320 315 311 313 314 314 315 317 319 322 321 320 320 322
194 193 193 194 195 196 198 199 198 197 196 197 198 198 200 203 205 207 209 211 216 219 221 223 225 229 232 234 235 231 221 212 205 198 191 188 186 186 187 188 187 186 189 195 202 205 206 213 233 265 288 295 301 309 311 310 309 309 313 322 328 328 326 325 323 320 320 321 322 321 321 320 314 312 315 314 313 316 318 318 318 317 315 316 318
194 194 195 197 197 197 198 198 197 196 196 197 198 200 201 203 205 207 209 213 217 219 221 224 227 231 233 233 233 229 221 212 204 198 195 193 192 192 192 192 193 194 197 202 208 214 219 227 242 268 288 296 305 310 310 308 306 307 312 318 323 322 319 319 319 318 317 318 320 321 321 319 316 315 314 311 311 314 315 313 311 310 311 313 316
195 193 194 196 196 196 197 197 195 195 197 199 201 202 204 205 206 208 210 214 217 220 222 226 229 232 233 232 229 226 221 213 206 204 203 203 201 198 197 199 201 203 206 209 214 221 228 237 249 273 289 297 304 306 305 305 304 305 309 312 315 314 312 314 316 314 313 314 317 320 318 316 317 316 311 307 307 308 308 307 307 308 311 313 315
193 191 192 195 195 195 195 195 195 197 201 204 206 207 208 210 211 213 214 215 218 221 224 228 231 233 232 231 230 227 223 216 212 211 211 211 209 205 204 206 208 211 215 218 223 229 235 243 253 273 286 293 297 297 298 300 299 301 303 305 306 305 306 308 307 306 308 311 313 315 312 311 314 313 308 308 308 306 305 307 309 311 312 313 313
186 187 190 194 194 193 194 196 199 203 206 209 211 211 212 215 218 220 220 219 220 223 226 229 233 234 232 231 232 229 224 220 218 218 217 217 215 211 210 210 211 216 223 227 232 237 242 248 255 266 277 284 288 289 291 292 293 295 297 298 299 300 303 303 300 302 307 308 308 310 309 308 310 310 310 311 312 311 310 311 313 314 313 312 311
182 184 188 189 187 188 191 194 200 205 209 212 215 216 217 219 222 224 224 223 224 226 228 230 233 234 233 234 235 231 227 224 223 222 222 222 221 216 213 213 215 219 226 232 236 239 244 249 254 260 268 276 281 284 286 286 287 288 289 291 295 301 305 302 300 304 308 306 306 308 307 306 309 312 313 313 314 314 312 312 315 315 312 312 312
182 185 187 185 185 187 189 193 198 205 211 215 218 220 221 223 225 227 227 226 226 228 229 230 233 234 234 234 233 230 229 227 225 225 226 228 226 221 218 218 220 222 228 234 238 240 243 249 255 261 268 274 278 281 282 283 285 286 287 291 299 307 309 303 302 306 305 303 306 309 308 309 310 312 314 314 315 313 311 313 316 312 310 312 314
183 187 189 190 191 193 194 197 203 209 215 220 222 224 225 226 229 230 229 228 227 227 228 229 232 234 236 235 232 229 229 228 227 226 228 231 231 226 224 224 224 227 231 236 239 242 246 253 261 267 271 274 276 277 278 282 287 289 291 296 303 308 308 304 303 304 302 303 309 311 312 313 313 312 313 312 312 311 310 314 314 309 308 311 312
187 189 193 196 198 200 202 205 208 212 218 223 226 227 227 228 230 231 231 230 228 227 226 228 231 234 236 237 236 233 230 231 231 230 231 234 235 232 230 229 229 232 236 238 242 247 252 259 266 271 273 274 275 277 281 287 292 295 296 298 304 311 310 305 303 303 304 307 311 311 311 312 310 309 308 306 306 307 307 309 309 306 306 308 306
191 193 197 202 205 208 211 213 215 217 221 225 229 233 234 232 231 232 232 232 230 228 227 227 229 232 236 238 239 237 233 234 236 235 234 236 238 238 237 236 237 239 241 244 248 253 260 266 269 272 273 275 279 283 288 293 296 298 297 297 303 310 307 302 301 301 303 304 304 304 305 305 303 303 302 301 302 303 303 305 305 303 303 304 304
192 195 200 205 208 212 217 221 224 226 226 227 231 237 242 242 237 232 231 231 230 228 228 228 229 232 236 239 240 240 237 235 237 238 239 239 240 243 244 245 245 246 248 251 255 259 263 266 268 270 272 276 281 286 290 293 296 297 295 294 299 304 300 297 297 297 297 299 300 302 304 304 302 302 301 301 300 300 300 301 301 301 301 303 303
195 198 201 203 206 210 215 220 225 229 231 231 231 235 242 250 248 238 229 227 227 227 228 228 230 233 238 240 241 241 240 238 237 239 241 242 243 246 248 250 251 253 254 256 258 260 262 263 265 268 272 276 281 285 289 292 293 294 294 294 298 301 298 295 296 297 300 304 307 308 307 306 305 305 304 304 303 303 302 303 302 302 302 302 302
198 201 204 206 208 210 213 216 221 226 229 232 232 232 236 244 252 250 237 228 226 227 229 231 233 236 239 241 241 241 241 241 239 238 240 242 244 247 251 253 255 256 256 257 258 260 262 264 267 270 274 278 283 286 289 290 291 294 296 297 300 302 300 299 301 302 305 309 309 309 310 310 310 310 311 311 310 310 309 308 306 304 303 303 303
203 205 208 211 212 213 214 216 219 222 226 230 233 233 234 236 241 248 248 239 232 228 228 231 233 234 236 238 239 241 242 242 241 240 241 243 246 250 253 255 257 258 258 260 261 263 265 268 271 274 278 282 286 288 289 291 293 295 298 300 302 304 303 304 304 304 306 308 308 309 310 311 311 312 313 313 312 312 311 309 308 307 306 305 305
210 211 213 215 216 216 216 217 219 221 224 227 231 234 235 235 235 237 241 243 241 235 232 231 231 232 236 238 240 241 242 243 243 243 244 246 248 251 254 255 257 259 260 262 264 267 269 271 274 278 282 285 288 289 291 292 294 296 298 300 302 304 305 305 306 306 307 309 309 310 311 311 311 312 312 312 311 311 309 307 306 306 307 307 305
212 213 215 216 217 218 219 219 220 221 222 224 227 231 234 236 236 235 236 238 240 240 239 238 237 238 241 243 244 243 243 243 243 244 245 247 248 251 253 255 257 260 262 264 267 270 272 274 278 282 285 287 288 290 291 292 294 296 298 300 302 304 306 307 307 308 309 310 311 313 314 313 312 312 312 310 309 308 305 302 302 305 307 306 303
213 215 216 217 219 220 221 221 221 221 222 223 225 228 231 234 236 237 238 238 238 239 239 241 242 243 244 247 248 248 247 247 246 247 248 249 251 253 255 258 261 264 266 268 270 273 276 279 282 284 285 286 288 289 290 292 294 296 298 300 302 304 305 306 307 308 310 312 314 316 316 316 315 314 312 310 309 306 301 299 301 305 306 305 303
216 218 219 221 222 223 223 224 224 225 225 226 226 227 229 231 234 237 238 239 239 239 239 240 242 243 245 247 249 250 250 250 251 251 252 254 256 258 261 264 267 269 271 272 274 276 279 281 283 284 285 286 287 288 290 292 294 295 297 299 301 302 303 304 307 309 312 314 315 316 317 316 316 315 313 311 309 305 300 300 303 305 306 305 305
218 220 221 223 224 225 226 228 229 230 230 231 231 231 231 231 233 235 237 238 239 239 240 240 241 242 244 246 249 250 252 253 254 255 256 257 259 261 264 266 267 269 271 273 275 277 278 279 281 282 283 285 286 287 290 292 294 295 297 299 300 301 303 305 308 311 313 314 315 316 316 316 316 316 314 312 310 305 301 302 304 305 306 306 307
220 221 222 223 225 226 228 229 230 231 231 232 234 235 235 235 235 235 236 237 238 239 241 242 243 245 246 247 249 251 252 253 254 256 257 259 260 261 263 265 266 268 270 272 274 276 277 279 280 281 283 284 286 288 290 292 293 295 297 298 300 302 304 307 310 311 313 314 315 316 316 316 317 317 316 314 310 305 302 303 304 305 305 306 307
218 218 220 222 223 225 226 227 227 229 230 231 233 235 236 238 239 239 239 240 241 243 244 246 248 249 250 251 252 253 254 255 256 257 258 259 261 263 264 266 267 269 271 273 275 277 278 279 280 281 283 285 287 289 290 292 294 295 297 299 301 303 305 307 309 311 312 314 314 315 316 316 317 318 317 316 312 307 305 305 306 307 307 307 309
218 218 219 221 223 224 225 225 227 228 230 231 232 234 236 238 240 241 242 243 244 246 248 249 250 251 252 253 253 255 256 257 259 260 261 262 263 265 266 268 269 270 272 274 275 277 278 279 280 282 284 286 288 289 291 292 294 296 297 299 301 303 305 307 308 310 312 313 314 315 316 317 318 318 318 316 313 309 307 307 308 308 308 308 309
222 221 221 222 224 226 227 228 229 231 232 233 234 236 237 239 240 241 242 243 245 246 248 249 250 250 252 253 254 255 258 260 261 263 264 265 266 267 268 269 270 271 272 274 275 276 278 279 281 283 285 286 288 289 291 293 294 296 298 300 301 303 304 306 308 310 312 313 314 316 317 317 318 318 317 316 314 310 308 308 309 309 309 309 309
228 227 226 225 226 228 230 231 233 235 236 237 238 239 240 241 242 243 244 245 247 249 249 251 252 253 254 255 256 258 260 262 263 264 265 266 267 268 268 269 270 272 273 274 275 277 278 280 281 283 284 286 288 290 292 294 295 297 299 300 302 303 304 306 309 311 312 314 314 315 316 317 318 317 315 314 312 309 307 307 308 310 310 310 310
233 232 231 230 229 230 232 233 235 237 239 241 242 244 245 246 247 248 248 249 251 252 253 254 255 256 256 258 259 259 261 262 263 265 266 267 268 268 269 270 271 272 273 275 276 277 279 280 281 283 285 287 289 291 293 295 296 298 299 300 301 303 305 307 309 311 313 314 314 315 316 317 317 316 314 312 310 308 307 307 308 309 309 308 309
237 237 236 235 234 234 234 235 236 238 240 243 245 247 249 251 252 252 253 253 254 255 256 257 257 257 258 259 259 260 261 263 263 264 265 266 267 268 269 270 272 273 274 275 276 278 279 281 283 285 287 289 291 292 294 295 296 297 298 300 301 303 305 307 309 311 313 313 314 314 315 316 317 316 315 313 312 311 310 309 309 310 310 310 312
242 242 242 241 240 239 238 238 239 240 241 243 245 247 249 250 251 252 253 255 256 257 259 259 259 259 259 260 260 261 262 263 264 265 265 266 267 269 270 271 273 274 275 276 278 279 281 283 285 287 289 290 291 293 294 295 296 297 298 300 301 303 305 307 309 311 313 313 314 314 314 315 316 316 315 314 313 313 314 314 313 314 315 315 316
247 247 247 246 245 244 243 243 243 243 243 244 245 246 247 249 250 251 253 254 256 257 258 259 260 260 260 260 261 261 262 263 264 266 267 268 269 270 272 273 275 276 277 278 280 282 284 285 287 288 289 290 291 292 293 295 296 297 298 300 301 303 304 307 309 311 313 313 313 313 313 314 315 315 315 314 314 314 316 317 317 316 316 315 315
250 250 250 249 249 248 247 247 247 247 247 248 249 250 250 251 252 253 253 254 254 254 255 256 257 258 259 260 261 262 263 264 266 267 269 270 272 273 275 276 277 278 279 281 282 284 285 286 287 288 289 290 291 292 293 294 296 297 298 299 301 302 304 307 309 312 313 312 312 312 312 313 314 315 315 315 314 314 316 317 317 314 313 313 313
251 251 251 251 251 251 250 250 250 251 251 252 253 255 255 255 255 255 255 255 255 255 255 256 257 258 260 261 262 264 266 267 269 270 271 273 274 275 276 277 278 280 281 282 283 284 284 285 286 288 289 290 291 292 293 294 295 296 297 299 301 303 305 307 309 311 312 311 310 311 311 312 313 314 315 314 313 313 314 315 315 312 310 311 310
251 251 251 251 251 252 252 252 252 252 253 254 255 257 258 258 258 258 258 258 258 258 259 259 260 261 263 264 265 266 268 269 270 271 272 274 274 275 277 278 279 280 281 282 282 283 284 285 286 288 289 290 291 292 293 294 295 296 298 299 301 303 305 307 309 310 311 310 309 309 310 311 312 314 314 313 312 312 312 313 312 310 307 307 307
251 250 250 250 250 251 252 253 254 254 255 256 256 257 258 259 260 260 261 262 262 262 262 263 264 265 266 266 267 268 269 270 271 272 273 274 275 276 277 278 279 280 280 281 282 283 284 285 286 288 289 290 291 292 293 294 295 297 299 300 302 304 305 307 308 309 309 308 308 308 309 311 312 313 313 312 312 312 312 312 310 308 306 306 307
251 249 249 249 250 250 251 252 254 255 256 257 257 258 259 260 260 261 262 262 263 264 265 265 266 267 268 269 269 270 271 271 272 273 274 274 275 276 277 278 278 279 280 281 282 283 284 286 287 288 288 289 291 292 293 295 296 298 300 301 303 304 305 306 307 308 308 307 306 307 308 310 312 312 311 311 311 311 312 311 309 307 307 309 310
249 249 248 248 249 249 250 251 252 254 255 256 257 258 260 260 261 262 263 263 264 265 265 266 267 268 269 270 270 271 271 272 273 274 275 275 276 277 277 278 279 280 281 282 283 284 285 286 287 287 288 289 291 292 294 295 297 298 300 301 302 303 304 305 306 306 306 305 305 306 308 309 311 311 309 309 309 311 311 310 308 308 308 309 310
246 247 247 248 248 248 249 250 251 252 254 255 256 258 259 260 261 263 264 265 266 266 267 267 268 268 269 269 270 271 272 273 273 274 275 275 276 277 278 278 279 280 281 282 283 284 284 285 286 287 289 290 291 293 294 295 297 298 300 301 302 302 303 304 305 305 304 304 304 306 307 308 309 309 307 306 306 308 309 308 307 306 305 305 305
244 245 245 247 248 248 249 250 251 252 253 254 255 257 258 260 261 262 263 265 266 267 267 268 268 269 269 269 270 271 271 272 273 273 274 275 276 276 277 278 279 280 281 282 283 283 284 285 286 288 289 290 291 292 294 295 296 298 299 300 301 302 303 303 303 303 303 303 304 305 307 307 307 307 306 304 303 304 306 307 307 305 304 303 303
244 245 246 247 249 251 252 253 254 255 256 256 257 258 259 260 261 262 263 264 265 266 267 267 268 269 269 270 270 271 271 272 273 273 274 275 276 277 277 278 279 280 281 282 283 283 284 285 286 287 289 290 291 292 294 295 296 297 299 299 300 301 301 301 301 301 301 302 303 304 305 305 304 304 304 303 302 301 302 304 305 304 302 301 302
248 249 250 252 254 256 257 258 259 260 260 260 260 261 261 262 262 263 263 264 264 265 265 266 266 267 268 269 270 271 271 272 273 274 275 275 276 277 278 279 279 280 281 281 282 283 284 285 286 287 289 290 291 293 294 295 296 297 298 298 298 298 299 299 299 299 300 300 301 301 301 301 301 300 299 299 299 298 298 298 300 300 298 297 297
255 256 257 258 259 260 261 261 262 262 262 262 262 262 262 262 263 263 263 263 264 264 265 265 266 267 267 268 269 270 270 271 273 273 275 276 276 277 278 278 279 280 281 281 282 283 285 286 287 288 289 291 292 293 294 294 295 296 296 296 296 296 296 297 297 297 298 298 298 298 297 297 296 296 296 296 296 295 293 293 293 294 293 293 293
259 261 262 262 263 263 263 263 263 263 263 262 262 261 261 261 261 261 262 262 262 263 264 264 265 266 267 267 268 269 270 271 272 273 274 275 276 277 277 278 279 280 281 282 283 284 285 287 288 289 290 291 292 292 293 293 293 294 294 294 294 294 295 295 295 295 295 296 295 295 294 294 294 294 293 293 291 290 288 288 289 289 289 289 290
262 263 264 264 264 264 264 264 263 263 262 261 260 259 259 260 260 260 260 261 261 262 262 263 264 265 266 267 267 268 269 271 272 273 274 274 275 276 277 278 279 280 281 282 284 285 286 287 288 289 290 291 291 291 291 291 291 291 292 292 292 292 292 292 292 292 292 293 293 292 293 294 294 293 291 289 286 284 283 284 285 286 285 285 286
Height
5904 5906 5908 5910 5912 5914 5916 5918 5919 5921 5923 5925 5927 5928 5929 5931 5932 5933 5934 5935 5936 5937 5938 5938 5939 5940 5940 5941 5941 5942 5942 5943 5943 5944 5945 5945 5946 5946 5946 5947 5947 5947 5947 5947 5947 5947 5947 5947 5947 5947 5947 5947 5947 5947 5946 5946 5945 5945 5945 5945 5945 5945 5944 5944 5944 5943 5943 5942 5942 5941 5940 5939 5939 5938 5937 5937 5936 5935 5934 5932 5931 5930 5928 5926 5925
5903 5905 5906 5909 5911 5913 5915 5916 5918 5920 5922 5924 5925 5927 5929 5930 5931 5933 5934 5935 5936 5937 5937 5937 5938 5938 5939 5940 5940 5941 5941 5941 5942 5943 5943 5944 5945 5945 5945 5946 5946 5946 5946 5946 5946 5946 5946 5946 5946 5946 5946 5946 5946 5945 5945 5945 5945 5945 5945 5944 5944 5944 5944 5943 5943 5942 5942 5941 5941 5940 5939 5939 5938 5937 5936 5936 5935 5933 5932 5931 5929 5928 5926 5925 5923
5901 5902 5904 5907 5909 5911 5913 5915 5916 5918 5921 5922 5924 5926 5927 5929 5931 5932 5933 5934 5935 5936 5936 5937 5937 5937 5938 5938 5939 5940 5940 5940 5941 5941 5942 5942 5943 5944 5944 5944 5945 5945 5945 5945 5944 5944 5944 5944 5944 5944 5944 5944 5944 5944 5944 5943 5943 5943 5943 5943 5943 5943 5943 5942 5942 5942 5941 5940 5940 5939 5938 5937 5936 5936 5935 5934 5933 5932 5930 5928 5927 5926 5924 5923 5921
5898 5900 5903 5904 5906 5908 5911 5913 5915 5917 5919 5921 5923 5925 5926 5928 5930 5931 5932 5933 5934 5935 5936 5936 5936 5936 5937 5937 5937 5938 5939 5939 5940 5940 5941 5941 5941 5942 5942 5943 5943 5943 5943 5943 5943 5943 5942 5942 5942 5942 5942 5942 5942 5942 5942 5942 5942 5942 5941 5941 5942 5942 5942 5942 5941 5941 5941 5940 5939 5938 5937 5935 5934 5933 5932 5931 5930 5929 5928 5926 5925 5924 5922 5921 5919
5896 5899 5901 5902 5904 5907 5909 5911 5914 5916 5917 5919 5921 5923 5925 5927 5928 5929 5931 5932 5933 5934 5935 5935 5935 5935 5935 5935 5936 5937 5937 5938 5938 5939 5939 5939 5940 5940 5940 5941 5941 5942 5942 5942 5942 5942 5941 5941 5941 5941 5941 5941 5941 5940 5940 5940 5940 5940 5940 5940 5940 5940 5940 5940 5940 5940 5939 5939 5937 5936 5936 5934 5933 5931 5930 5929 5928 5926 5925 5923 5922 5921 5920 5918 5917
5895 5897 5899 5901 5903 5905 5908 5910 5913 5914 5916 5918 5920 5922 5923 5925 5926 5928 5929 5930 5931 5932 5933 5934 5934 5934 5934 5934 5935 5935 5936 5936 5937 5937 5938 5938 5938 5939 5939 5939 5939 5940 5940 5940 5940 5940 5940 5940 5940 5940 5940 5940 5940 5939 5939 5939 5939 5939 5938 5938 5938 5938 5938 5938 5938 5937 5937 5937 5936 5935 5934 5933 5932 5931 5928 5927 5926 5924 5922 5920 5919 5918 5917 5916 5915
5894 5896 5898 5900 5902 5904 5907 5909 5911 5913 5914 5916 5918 5920 5922 5923 5925 5926 5927 5929 5930 5931 5932 5932 5932 5932 5933 5933 5933 5934 5934 5935 5935 5936 5936 5936 5937 5937 5938 5938 5938 5938 5939 5939 5939 5939 5939 5939 5939 5939 5939 5939 5939 5939 5938 5938 5938 5938 5937 5937 5937 5937 5937 5937 5936 5936 5935 5935 5935 5934 5933 5932 5931 5929 5927 5926 5925 5923 5920 5918 5917 5916 5914 5914 5913
5892 5894 5896 5899 5901 5903 5905 5907 5909 5911 5912 5914 5916 5918 5920 5921 5923 5924 5926 5927 5928 5929 5930 5930 5931 5931 5931 5932 5932 5932 5933 5934 5934 5934 5935 5935 5935 5936 5936 5937 5937 5937 5937 5938 5938 5938 5938 5938 5939 5939 5939 5939 5939 5938 5938 5938 5938 5937 5937 5937 5937 5937 5937 5936 5935 5935 5934 5934 5933 5932 5931 5930 5928 5927 5925 5924 5923 5921 5918 5916 5916 5915 5912 5911 5910
5891 5893 5896 5898 5900 5902 5904 5905 5907 5909 5911 5913 5915 5917 5919 5920 5921 5922 5924 5925 5927 5928 5929 5929 5930 5930 5930 5930 5930 5931 5931 5932 5933 5933 5933 5934 5934 5934 5935 5935 5936 5936 5937 5937 5937 5937 5938 5938 5938 5938 5938 5938 5938 5938 5937 5937 5937 5937 5937 5937 5937 5937 5936 5935 5934 5933 5932 5932 5931 5930 5929 5928 5927 5924 5923 5921 5920 5919 5917 5915 5914 5913 5910 5908 5908
5889 5892 5894 5896 5898 5900 5902 5903 5905 5907 5909 5911 5913 5915 5917 5918 5919 5921 5922 5923 5925 5926 5927 5928 5929 5929 5929 5929 5929 5929 5930 5930 5931 5931 5932 5932 5933 5933 5934 5934 5935 5935 5936 5936 5936 5936 5937 5937 5937 5937 5937 5937 5937 5936 5936 5936 5936 5936 5935 5936 5936 5936 5935 5934 5933 5932 5931 5930 5930 5928 5927 5927 5925 5922 5921 5919 5917 5916 5915 5913 5912 5911 5908 5906 5906
5888 5890 5892 5894 5896 5898 5900 5902 5904 5906 5908 5909 5911 5913 5914 5916 5917 5919 5920 5922 5923 5925 5926 5927 5927 5927 5927 5927 5928 5928 5928 5929 5929 5930 5930 5931 5931 5932 5932 5933 5933 5934 5935 5935 5935 5936 5936 5936 5936 5936 5936 5936 5936 5935 5935 5934 5934 5934 5934 5934 5935 5934 5933 5932 5931 5930 5928 5928 5927 5926 5925 5924 5923 5921 5919 5918 5915 5914 5912 5910 5909 5907 5905 5903 5902
5886 5888 5890 5892 5894 5896 5898 5900 5902 5904 5906 5907 5909 5911 5912 5914 5916 5917 5919 5920 5921 5923 5925 5925 5925 5925 5926 5926 5926 5926 5926 5927 5927 5928 5929 5929 5930 5930 5931 5931 5932 5932 5933 5934 5934 5935 5935 5935 5935 5935 5935 5935 5934 5934 5934 5933 5932 5932 5932 5932 5933 5932 5931 5930 5929 5927 5925 5925 5925 5924 5922 5922 5921 5919 5917 5915 5913 5911 5909 5907 5905 5903 5902 5899 5899
5885 5887 5889 5890 5893 5895 5897 5899 5901 5903 5904 5906 5907 5909 5911 5913 5914 5915 5917 5918 5920 5922 5923 5923 5924 5924 5924 5925 5925 5925 5925 5925 5926 5926 5926 5927 5927 5928 5929 5930 5930 5931 5932 5932 5933 5933 5934 5934 5934 5934 5934 5934 5933 5933 5932 5931 5930 5930 5930 5931 5931 5930 5929 5928 5927 5925 5923 5922 5921 5921 5920 5918 5918 5917 5914 5911 5909 5907 5905 5903 5900 5898 5897 5896 5895
5883 5885 5887 5889 5891 5893 5896 5898 5900 5901 5903 5904 5906 5908 5910 5911 5912 5913 5914 5916 5918 5920 5921 5921 5922 5922 5923 5923 5923 5923 5923 5923 5924 5924 5924 5925 5925 5926 5927 5928 5929 5930 5931 5931 5932 5932 5932 5933 5933 5933 5933 5932 5932 5931 5930 5929 5928 5928 5928 5929 5929 5928 5927 5926 5925 5922 5920 5918 5918 5919 5918 5915 5914 5913 5911 5906 5904 5902 5900 5898 5895 5893 5892 5892 5891
5882 5884 5886 5888 5890 5893 5895 5897 5898 5900 5901 5902 5904 5906 5908 5909 5910 5911 5912 5914 5916 5917 5919 5920 5920 5921 5921 5921 5921 5921 5922 5922 5922 5922 5923 5923 5924 5925 5926 5927 5928 5929 5929 5930 5930 5931 5931 5931 5932 5932 5931 5931 5930 5929 5928 5927 5926 5926 5926 5926 5926 5925 5924 5923 5922 5920 5918 5916 5915 5915 5914 5911 5909 5908 5906 5903 5900 5898 5895 5893 5890 5888 5887 5887 5886
5880 5883 5885 5887 5889 5891 5893 5895 5897 5898 5899 5901 5902 5904 5905 5906 5907 5908 5910 5912 5913 5915 5917 5918 5918 5919 5919 5919 5919 5920 5920 5920 5921 5921 5921 5922 5923 5924 5925 5926 5926 5927 5928 5928 5929 5929 5929 5930 5930 5930 5930 5929 5928 5927 5926 5925 5924 5924 5924 5924 5923 5923 5922 5920 5918 5917 5915 5913 5912 5911 5910 5907 5905 5903 5901 5898 5895 5893 5890 5887 5886 5884 5881 5880 5879
5879 5882 5884 5886 5888 5890 5892 5894 5895 5897 5898 5899 5901 5902 5903 5904 5905 5906 5908 5909 5911 5913 5914 5915 5915 5916 5916 5917 5918 5918 5918 5918 5919 5919 5919 5920 5921 5922 5923 5923 5924 5925 5926 5927 5927 5927 5928 5928 5928 5928 5928 5927 5926 5925 5924 5922 5921 5921 5921 5922 5922 5921 5920 5918 5916 5915 5913 5910 5909 5907 5905 5904 5901 5899 5897 5894 5891 5888 5884 5882 5882 5878 5874 5872 5872
5878 5881 5883 5885 5887 5889 5890 5892 5894 5895 5897 5898 5899 5900 5901 5902 5902 5904 5905 5907 5908 5909 5910 5911 5912 5913 5914 5915 5915 5916 5915 5915 5916 5916 5917 5917 5918 5920 5921 5921 5922 5924 5924 5924 5925 5925 5926 5926 5926 5925 5925 5924 5923 5922 5920 5919 5918 5918 5917 5919 5920 5920 5918 5915 5913 5912 5909 5906 5906 5904 5902 5900 5897 5894 5893 5890 5887 5884 5879 5878 5878 5873 5867 5867 5865
5877 5879 5881 5883 5885 5887 5889 5890 5892 5894 5895 5896 5897 5897 5898 5899 5900 5901 5903 5904 5905 5906 5907 5908 5909 5910 5911 5912 5912 5913 5913 5913 5913 5914 5915 5915 5916 5917 5918 5919 5920 5922 5922 5922 5922 5923 5923 5923 5923 5922 5922 5921 5920 5919 5917 5915 5915 5914 5913 5915 5917 5918 5915 5912 5909 5907 5905 5904 5903 5902 5900 5899 5895 5892 5890 5887 5884 5881 5877 5875 5874 5869 5864 5862 5860
5875 5877 5879 5881 5883 5885 5887 5888 5890 5891 5892 5893 5894 5895 5896 5897 5898 5899 5900 5901 5902 5903 5904 5906 5907 5908 5908 5909 5909 5910 5910 5910 5911 5912 5912 5913 5914 5915 5915 5917 5918 5919 5919 5919 5920 5920 5920 5920 5920 5919 5918 5918 5916 5915 5914 5912 5911 5910 5908 5909 5914 5916 5913 5909 5906 5904 5903 5902 5901 5899 5899 5898 5894 5891 5888 5885 5883 5879 5875 5872 5869 5864 5860 5857 5854
5873 5875 5877 5879 5881 5883 5885 5886 5887 5889 5889 5890 5891 5892 5893 5894 5895 5896 5897 5898 5899 5901 5902 5903 5904 5905 5906 5906 5907 5907 5908 5908 5908 5909 5910 5911 5911 5912 5913 5914 5915 5915 5916 5916 5917 5917 5917 5917 5916 5915 5915 5915 5914 5912 5911 5909 5907 5906 5902 5901 5909 5913 5910 5905 5903 5901 5900 5899 5897 5895 5895 5892 5890 5887 5885 5883 5881 5877 5872 5869 5866 5861 5856 5851 5848
5869 5872 5874 5876 5878 5880 5882 5883 5885 5886 5886 5888 5889 5890 5891 5892 5892 5893 5894 5895 5897 5898 5899 5900 5901 5902 5902 5903 5904 5905 5905 5906 5906 5907 5908 5908 5909 5909 5910 5912 5912 5912 5913 5914 5914 5914 5914 5914 5913 5912 5912 5912 5911 5910 5909 5906 5904 5902 5897 5893 5900 5907 5904 5900 5899 5896 5894 5893 5891 5889 5888 5886 5883 5881 5879 5878 5876 5872 5867 5864 5861 5857 5853 5847 5843
5866 5868 5871 5873 5875 5877 5878 5880 5881 5882 5883 5885 5886 5887 5889 5889 5890 5891 5891 5892 5894 5895 5896 5897 5898 5899 5900 5901 5902 5902 5903 5903 5904 5905 5906 5906 5906 5907 5908 5909 5909 5909 5910 5911 5911 5911 5911 5910 5910 5909 5908 5908 5908 5907 5906 5904 5901 5899 5894 5888 5891 5897 5896 5893 5890 5888 5887 5887 5884 5882 5882 5879 5875 5873 5871 5868 5866 5862 5859 5856 5854 5851 5847 5843 5839
5863 5866 5868 5870 5871 5873 5875 5876 5878 5879 5881 5882 5883 5884 5886 5887 5888 5889 5889 5890 5891 5892 5893 5894 5895 5896 5897 5898 5899 5900 5900 5901 5902 5903 5903 5904 5904 5905 5906 5906 5906 5906 5907 5908 5907 5907 5907 5906 5906 5905 5904 5904 5904 5903 5902 5900 5897 5894 5891 5886 5884 5886 5886 5884 5882 5879 5879 5880 5878 5875 5874 5872 5868 5865 5863 5860 5856 5853 5851 5848 5845 5842 5839 5836 5833
5860 5863 5864 5866 5868 5870 5871 5873 5874 5876 5877 5879 5880 5881 5882 5883 5885 5886 5887 5888 5889 5890 5891 5892 5893 5894 5895 5896 5897 5897 5898 5898 5900 5900 5901 5901 5902 5902 5903 5903 5903 5903 5904 5904 5904 5903 5903 5902 5902 5901 5901 5900 5900 5899 5897 5895 5893 5890 5887 5883 5880 5879 5878 5877 5875 5873 5872 5871 5870 5869 5868 5865 5862 5859 5857 5853 5850 5847 5844 5841 5838 5835 5832 5829 5826
5856 5858 5860 5862 5864 5865 5867 5869 5870 5872 5873 5875 5876 5877 5878 5880 5881 5883 5884 5886 5887 5888 5889 5890 5891 5892 5893 5893 5894 5894 5895 5896 5897 5898 5898 5898 5899 5899 5899 5899 5899 5899 5900 5900 5900 5899 5898 5898 5898 5898 5897 5896 5895 5894 5892 5890 5888 5885 5882 5879 5877 5875 5873 5871 5869 5867 5865 5863 5862 5861 5860 5858 5855 5852 5850 5846 5843 5841 5838 5835 5832 5830 5827 5823 5820
5852 5854 5856 5857 5859 5861 5862 5864 5865 5867 5868 5870 5871 5873 5875 5876 5878 5879 5881 5882 5884 5885 5886 5887 5888 5889 5890 5891 5891 5891 5892 5894 5895 5895 5895 5895 5895 5895 5895 5895 5895 5895 5896 5896 5895 5894 5894 5894 5893 5893 5892 5891 5889 5888 5887 5885 5882 5880 5877 5875 5872 5870 5868 5866 5864 5861 5859 5856 5854 5853 5851 5849 5846 5844 5841 5838 5836 5834 5832 5827 5825 5823 5821 5817 5813
5848 5850 5852 5853 5855 5856 5858 5859 5861 5862 5864 5865 5867 5869 5871 5873 5874 5876 5877 5878 5880 5881 5882 5884 5885 5886 5886 5887 5887 5888 5889 5890 5891 5891 5891 5891 5891 5891 5891 5891 5891 5891 5891 5891 5891 5890 5890 5889 5888 5888 5887 5886 5884 5882 5881 5879 5877 5875 5872 5870 5868 5866 5864 5861 5859 5856 5853 5851 5848 5846 5844 5841 5838 5835 5832 5829 5827 5826 5824 5820 5818 5816 5813 5810 5806
5844 5846 5847 5849 5851 5852 5853 5855 5857 5859 5860 5862 5863 5865 5867 5869 5870 5872 5873 5874 5876 5877 5878 5879 5880 5881 5881 5882 5883 5884 5885 5886 5886 5886 5886 5887 5887 5887 5887 5886 5886 5886 5886 5886 5886 5886 5885 5884 5883 5882 5881 5880 5879 5877 5875 5873 5871 5869 5867 5865 5863 5861 5858 5856 5853 5850 5848 5845 5842 5840 5837 5834 5831 5827 5823 5821 5820 5818 5816 5814 5811 5809 5806 5802 5799
5840 5842 5844 5845 5847 5848 5850 5851 5853 5855 5856 5858 5859 5861 5863 5864 5866 5867 5869 5870 5871 5872 5873 5875 5875 5876 5877 5877 5878 5879 5880 5880 5881 5881 5882 5882 5882 5882 5882 5882 5882 5881 5881 5881 5880 5880 5880 5879 5878 5877 5875 5874 5873 5871 5869 5867 5865 5864 5861 5859 5857 5854 5852 5850 5847 5845 5842 5839 5836 5833 5830 5826 5823 5820 5816 5813 5812 5810 5809 5807 5805 5802 5799 5795 5792
5837 5839 5840 5841 5843 5844 5846 5848 5849 5851 5852 5854 5855 5857 5858 5860 5861 5863 5865 5866 5867 5868 5869 5870 5871 5872 5872 5873 5874 5874 5875 5875 5875 5876 5876 5877 5877 5877 5877 5877 5877 5876 5876 5875 5875 5875 5874 5873 5872 5871 5869 5868 5866 5865 5863 5861 5859 5858 5856 5853 5851 5849 5847 5845 5843 5840 5838 5835 5831 5828 5824 5820 5816 5813 5810 5806 5804 5802 5801 5799 5796 5793 5791 5788 5785
5834 5836 5837 5838 5839 5841 5842 5844 5845 5847 5848 5850 5851 5853 5854 5856 5857 5859 5860 5861 5862 5863 5865 5866 5867 5867 5868 5869 5869 5870 5870 5870 5870 5870 5871 5871 5872 5872 5872 5872 5871 5871 5870 5870 5869 5869 5868 5867 5866 5864 5863 5861 5860 5858 5856 5855 5853 5851 5849 5847 5845 5843 5841 5840 5838 5835 5833 5830 5826 5822 5818 5814 5810 5806 5803 5800 5797 5795 5793 5791 5788 5785 5782 5779 5777
5830 5832 5834 5835 5836 5837 5839 5840 5841 5843 5844 5846 5847 5849 5850 5851 5853 5854 5856 5857 5858 5859 5860 5861 5862 5863 5863 5864 5865 5865 5865 5865 5865 5866 5866 5866 5867 5867 5867 5866 5866 5866 5865 5865 5864 5863 5862 5861 5860 5858 5857 5855 5853 5852 5850 5848 5846 5844 5842 5840 5839 5837 5835 5834 5832 5830 5827 5823 5819 5815 5811 5807 5804 5800 5797 5793 5790 5788 5785 5783 5780 5777 5774 5771 5768
5826 5828 5830 5831 5832 5834 5835 5836 5838 5839 5840 5842 5843 5845 5846 5847 5849 5850 5851 5852 5853 5854 5855 5856 5857 5858 5858 5859 5860 5860 5860 5860 5860 5860 5860 5861 5861 5861 5861 5861 5861 5860 5860 5859 5858 5857 5856 5855 5853 5852 5851 5849 5847 5846 5844 5842 5840 5838 5836 5834 5832 5830 5828 5827 5825 5823 5820 5816 5812 5809 5805 5802 5798 5795 5792 5788 5785 5782 5779 5776 5773 5770 5767 5764 5761
5821 5823 5825 5827 5828 5829 5831 5832 5833 5835 5836 5837 5839 5840 5841 5843 5844 5846 5847 5848 5848 5849 5850 5852 5852 5853 5853 5854 5855 5855 5855 5855 5855 5855 5855 5855 5855 5855 5855 5855 5855 5855 5854 5853 5852 5851 5850 5849 5847 5846 5844 5843 5841 5839 5838 5835 5833 5831 5829 5827 5825 5823 5821 5819 5817 5815 5812 5808 5805 5802 5798 5795 5792 5789 5786 5783 5780 5777 5775 5771 5768 5765 5762 5758 5754
5816 5819 5820 5822 5824 5825 5826 5827 5829 5830 5831 5833 5834 5835 5837 5838 5839 5840 5841 5842 5843 5844 5845 5846 5847 5848 5848 5849 5849 5849 5849 5849 5849 5849 5849 5849 5849 5849 5849 5849 5849 5848 5848 5847 5846 5845 5843 5842 5841 5839 5838 5836 5834 5833 5831 5829 5826 5824 5822 5820 5819 5816 5814 5812 5810 5807 5804 5801 5798 5795 5792 5788 5785 5782 5779 5775 5772 5770 5767 5765 5762 5759 5756 5752 5747
5811 5813 5816 5818 5819 5820 5821 5823 5824 5825 5826 5828 5829 5830 5831 5832 5833 5834 5835 5836 5838 5839 5840 5841 5842 5842 5843 5843 5843 5843 5843 5843 5843 5843 5843 5843 5843 5843 5843 5843 5843 5842 5841 5840 5839 5838 5837 5836 5834 5833 5831 5829 5827 5826 5824 5822 5820 5817 5815 5813 5811 5809 5807 5805 5802 5800 5797 5794 5790 5787 5785 5782 5779 5776 5772 5769 5765 5762 5759 5757 5754 5751 5748 5745 5741
5806 5808 5810 5812 5813 5815 5816 5817 5818 5820 5821 5822 5823 5824 5825 5826 5827 5828 5830 5831 5832 5833 5834 5835 5835 5836 5836 5836 5837 5837 5837 5836 5837 5837 5837 5837 5837 5837 5837 5836 5836 5834 5834 5833 5832 5831 5830 5829 5827 5826 5824 5822 5820 5819 5817 5815 5813 5810 5808 5806 5804 5802 5800 5797 5795 5793 5790 5787 5783 5780 5778 5775 5773 5770 5767 5763 5760 5756 5753 5750 5748 5745 5742 5739 5736
5800 5802 5804 5806 5807 5809 5810 5811 5812 5814 5815 5816 5817 5819 5820 5822 5823 5824 5825 5826 5826 5827 5827 5828 5828 5828 5829 5829 5829 5830 5830 5830 5831 5830 5830 5830 5830 5830 5830 5829 5828 5827 5827 5826 5825 5824 5822 5821 5820 5818 5816 5815 5813 5812 5810 5807 5805 5803 5801 5798 5796 5794 5792 5790 5788 5786 5783 5780 5777 5774 5771 5769 5767 5764 5762 5758 5755 5752 5749 5747 5744 5742 5739 5735 5732
5794 5796 5798 5800 5801 5803 5804 5805 5806 5807 5809 5810 5812 5813 5815 5816 5818 5818 5819 5819 5819 5819 5820 5821 5821 5821 5822 5822 5823 5823 5824 5824 5824 5824 5824 5824 5824 5823 5822 5822 5821 5820 5819 5818 5817 5816 5815 5813 5812 5811 5809 5807 5806 5804 5802 5800 5797 5795 5793 5791 5788 5786 5784 5783 5781 5779 5777 5774 5771 5768 5765 5763 5760 5758 5756 5753 5751 5748 5746 5743 5741 5738 5735 5731 5729
5788 5790 5791 5793 5795 5796 5798 5799 5800 5802 5803 5805 5806 5807 5808 5809 5811 5811 5811 5812 5812 5812 5813 5813 5814 5815 5815 5816 5817 5817 5818 5818 5817 5817 5817 5816 5816 5815 5815 5814 5813 5813 5811 5810 5809 5808 5807 5806 5805 5803 5801 5799 5798 5796 5794 5792 5789 5787 5785 5783 5780 5778 5776 5775 5774 5772 5770 5767 5764 5761 5759 5756 5754 5752 5750 5747 5745 5743 5741 5739 5736 5733 5730 5727 5725
5781 5783 5785 5787 5789 5790 5791 5793 5794 5795 5797 5798 5800 5801 5801 5802 5803 5804 5804 5805 5805 5806 5806 5807 5808 5808 5809 5809 5810 5810 5811 5811 5810 5809 5809 5809 5808 5807 5807 5806 5806 5805 5803 5802 5801 5800 5799 5798 5797 5795 5793 5791 5789 5788 5786 5784 5781 5779 5777 5775 5773 5770 5768 5767 5766 5765 5762 5760 5758 5755 5753 5750 5748 5746 5743 5741 5739 5737 5735 5733 5731 5728 5725 5722 5719
5775 5777 5779 5780 5782 5784 5785 5786 5788 5789 5790 5791 5793 5794 5795 5795 5796 5797 5797 5798 5798 5799 5799 5800 5800 5801 5801 5802 5802 5802 5802 5802 5802 5801 5801 5801 5800 5799 5799 5798 5797 5796 5795 5794 5793 5792 5791 5789 5788 5787 5785 5783 5781 5779 5777 5775 5773 5771 5769 5767 5765 5762 5760 5759 5758 5757 5755 5753 5751 5749 5746 5744 5742 5740 5737 5735 5733 5730 5728 5726 5724 5721 5718 5715 5711
5768 5770 5772 5774 5776 5777 5779 5780 5781 5783 5784 5785 5786 5787 5787 5788 5789 5789 5790 5791 5791 5792 5792 5793 5793 5794 5794 5794 5794 5794 5794 5794 5794 5793 5793 5792 5792 5791 5790 5790 5789 5788 5787 5786 5785 5784 5782 5781 5779 5778 5776 5775 5774 5772 5770 5768 5765 5763 5761 5759 5757 5755 5753 5751 5750 5749 5748 5746 5744 5742 5740 5738 5735 5733 5731 5729 5727 5725 5722 5720 5717 5715 5712 5709 5705
5762 5764 5766 5767 5769 5771 5772 5774 5775 5776 5777 5778 5779 5780 5780 5781 5782 5782 5783 5783 5784 5784 5785 5785 5786 5786 5786 5786 5786 5786 5786 5786 5785 5785 5784 5784 5783 5783 5782 5781 5780 5780 5779 5778 5777 5776 5774 5772 5771 5769 5768 5767 5765 5764 5762 5760 5758 5756 5754 5752 5750 5747 5745 5744 5743 5742 5740 5738 5737 5735 5733 5731 5729 5727 5725 5723 5722 5720 5718 5715 5713 5710 5708 5705 5702
5756 5758 5759 5761 5763 5764 5766 5767 5768 5769 5771 5772 5772 5773 5774 5774 5775 5775 5776 5776 5776 5776 5777 5777 5777 5778 5778 5778 5778 5778 5777 5777 5777 5777 5776 5776 5775 5774 5773 5772 5772 5771 5770 5769 5768 5767 5765 5764 5762 5761 5759 5758 5757 5755 5754 5752 5750 5748 5746 5744 5742 5740 5738 5736 5735 5734 5733 5731 5730 5728 5726 5724 5722 5720 5718 5717 5715 5714 5712 5710 5708 5705 5703 5701 5698
5750 5752 5753 5755 5756 5758 5759 5760 5761 5762 5763 5764 5765 5766 5766 5766 5767 5767 5768 5768 5768 5769 5769 5769 5769 5769 5769 5769 5769 5769 5768 5768 5768 5767 5767 5766 5766 5765 5764 5763 5763 5762 5761 5760 5759 5758 5756 5755 5754 5753 5751 5750 5748 5747 5745 5744 5742 5740 5738 5737 5735 5733 5731 5729 5728 5727 5725 5724 5722 5721 5719 5717 5715 5713 5711 5710 5709 5707 5706 5704 5703 5701 5698 5696 5694
5743 5745 5747 5749 5750 5751 5752 5753 5754 5755 5755 5756 5757 5757 5758 5758 5759 5759 5759 5759 5760 5760 5760 5760 5760 5760 5760 5760 5760 5760 5759 5759 5758 5758 5757 5757 5756 5756 5755 5755 5754 5753 5753 5752 5751 5749 5748 5747 5745 5744 5743 5741 5740 5738 5737 5735 5733 5732 5730 5729 5727 5725 5724 5722 5720 5719 5718 5716 5715 5713 5711 5709 5708 5706 5705 5703 5702 5701 5700 5698 5697 5695 5694 5692 5691
5737 5738 5740 5742 5743 5744 5744 5745 5746 5747 5747 5748 5748 5748 5749 5749 5750 5750 5750 5750 5751 5751 5751 5751 5751 5751 5751 5751 5751 5751 5750 5750 5749 5749 5748 5748 5747 5747 5746 5746 5745 5745 5744 5743 5741 5740 5739 5738 5737 5735 5734 5732 5731 5730 5728 5727 5725 5724 5722 5720 5719 5717 5716 5714 5713 5711 5709 5707 5706 5705 5704 5702 5701 5699 5698 5697 5696 5694 5693 5692 5691 5689 5688 5687 5686
5730 5731 5733 5734 5735 5735 5736 5736 5737 5737 5738 5738 5739 5739 5740 5740 5740 5741 5741 5741 5742 5742 5742 5742 5742 5742 5742 5742 5742 5742 5742 5741 5741 5740 5740 5739 5739 5738 5737 5737 5736 5736 5735 5733 5732 5731 5730 5729 5727 5726 5725 5723 5722 5721 5720 5718 5717 5715 5714 5712 5710 5709 5707 5706 5704 5702 5700 5698 5697 5696 5695 5695 5694 5692 5691 5690 5689 5688 5686 5685 5684 5683 5682 5681 5680
5723 5723 5724 5725 5726 5726 5726 5726 5727 5727 5728 5729 5729 5729 5730 5730 5731 5731 5732 5732 5733 5733 5733 5733 5733 5733 5734 5734 5734 5733 5733 5733 5732 5732 5731 5731 5730 5729 5728 5728 5727 5726 5726 5725 5723 5722 5721 5720 5718 5717 5716 5715 5713 5712 5711 5710 5708 5707 5705 5703 5701 5700 5699 5697 5696 5694 5692 5690 5689 5688 5687 5687 5686 5686 5685 5684 5682 5681 5680 5680 5679 5677 5676 5675 5674